全球星 M092星 (GLOBALSTAR M092)

导读

GLOBALSTAR M092是美国全球星(Globalstar)低轨通信星座中的一颗卫星,于2011年12月28日发射升空。作为全球星二代组网卫星之一,它运行在低地球轨道,主要为全球提供语音通信、数据传输及物联网服务,尤其弥补偏远地区、海洋与灾区地面网络覆盖盲区,支撑应急通信、远程监测等业务,是全球覆盖卫星通信基础设施的组成部分。

Basic Information
目录编号:
38043
目录名称:
GLOBALSTAR M092
国际标识:
2011-080D
轨道中心:
EARTH
卫星名称:
全球星 M092星
卫星全名:
全球星 M092星 (GLOBALSTAR M092)
卫星状态:
在轨 (已飞行5372 天)
发射日期:
2011-12-28 UTC
国别 :
(GLOB)
星等 :
--
This satellite is enrolled in the Space Conjunction Data Service (SCDS) and the current flight risk assessment level is: No High Risk
Orbit Information
数据来源 国际轨道数据 AOE轨道数据
星历时间 2026-09-12T02:30:01+0800
12小时前
查看轨道信息
2026-09-10T22:00:00+0800
1天前
查看轨道信息
半长轴 7791.742km 7791.734km
偏心率 0.0000682 0.0000625
轨道倾角 52.003° 52.008°
近地点辐角 64.050° 51.456°
升交点赤经 161.350° 164.967°
平近点角 329.328° 343.078°
近地点 1413.073km 1413.11km
远地点 1414.137km 1414.084km
周期 114.081分钟 114.080分钟
每日圈数 12.622662 12.622682
Detailed Information
固有亮度:
5
最大亮度:
7.2
平衡模式:
三轴稳定
覆盖范围:
全球
运营商:
全球星公司
运营商所在国:
美国
使用方式:
暂无
Satellite Introduction
全球星星座由48颗卫星加8颗备份星组成。这些卫星分布在8个倾角为52度的圆形轨道平面上,每个轨道平面6颗卫星,另有1 颗备用星。轨道高度约为1414km,传输时延和处理时延小于300ms,整个系统的覆盖区为南北纬70度以内的地区。该卫星仍在工作。
2D Orbit Map
3D Orbit Map
Orbit Altitude Analysis Chart
Orbit Inclination Analysis Chart
Orbit Comprehensive Analysis Chart
View Comprehensive Chart
Miss Distance Evolution Trend with All Objects
Collision Probability Evolution Trend with All Objects